Weather in Babahoyo

Ecuador     1°47′48″S   79°31′43″W
temp.,
°C
wind,
m/s
gust,
m/s
humid.,
%
clouds,
%
prec.,
mm/h
press.,
hPa
HPBL,
m
23 january, sat
sat2301:00+22w009774 0.0 101423
04:00+23s129796 1.3 101291
07:00+22nw119626 0.0 101448
10:00+26sw238997 2.0 1015482
13:00+28s228397 8.1 1012654
16:00+30n016484 0.9 10091096
19:00+25e129089 3.9 101228
22:00+24nnw019499 6.9 101434
24 january, sun
sun2401:00+23sse029978 20.0 1014240
04:00+22nne0299100 21.8 1012156
07:00+22se0199100 38.7 101390
10:00+23ese1297100 0.8 1014168
13:00+28s117591 1.1 1012719
16:00+29sw117758 2.1 1009659
19:00+24s129367 4.1 101126
22:00+24ssw129486 4.3 101377
25 january, mon
mon2501:00+23sse129797 4.9 1012149
04:00+23ene1198100 1.6 101163
07:00+22e119997 4.3 101383
10:00+25sse128899 0.4 1014364
13:00+31wnw016489 0.8 10111023
16:00+28ssw118063 4.5 1008455
19:00+24sse249498 10.8 1011107
22:00+23sse379898 7.0 1014373
26 january, tue
tue2601:00+22ese1298100 13.5 1013113
04:00+22e1298100 2.4 1012111
07:00+22se1298100 1.3 1013113
10:00+27wsw018284 0.0 1014539
13:00+30wsw116693 0.6 1012863
16:00+30ne0169100 1.6 1009991
19:00+25w0193100 7.0 101124
22:00+23ese1195100 2.8 101448
27 january, wed
wed2701:00+23ene0198100 18.9 101378
04:00+23ne1299100 2.7 1012119
07:00+23e1197100 2.6 101346
10:00+28se0181100 0.3 1014556
13:00+31nnw226176 0.1 10121234
16:00+31nnw126277 0.1 10091225
19:00+25nne019198 7.7 101024
22:00+24ssw139597 9.9 1013125